• In Russia
  • List of Countries
  • For 7 days
  • Water Temperature
  • Satellite Maps
  • Weather Map
  • Weather Widgets
  • user-avatar
    Login

    Hourly Weather Shusha

    Today, 5 December, Monday

    Time Temperature Precipitation Wind Pressure Humidity
    00:00 0°C° 0 mm 1 mps 662 mmHg 72%
    01:00 -1°C° 0 mm 1 mps 662 mmHg 73%
    02:00 -1°C° 0 mm 1 mps 661 mmHg 73%
    03:00 -1°C° 0 mm 1 mps 661 mmHg 73%
    04:00 -1°C° 0 mm 1 mps 661 mmHg 73%
    05:00 -1°C° 0 mm 1 mps 661 mmHg 73%
    06:00 -1°C° 0 mm 1 mps 662 mmHg 73%
    07:00 0°C° 0 mm 1 mps 662 mmHg 66%
    08:00 +1°C° 0 mm 1 mps 662 mmHg 60%
    09:00 +3°C° 0 mm 1 mps 663 mmHg 53%
    10:00 +2°C° 0 mm 2 mps 663 mmHg 50%
    11:00 +3°C° 0 mm 2 mps 662 mmHg 47%
    12:00 +4°C° 0 mm 2 mps 662 mmHg 44%
    13:00 +3°C° 0 mm 2 mps 662 mmHg 45%
    14:00 +3°C° 0 mm 2 mps 661 mmHg 47%
    15:00 +2°C° 0 mm 2 mps 661 mmHg 48%
    16:00 +1°C° 0 mm 2 mps 660 mmHg 54%
    17:00 +1°C° 0 mm 1 mps 660 mmHg 59%
    18:00 -1°C° 0 mm 1 mps 660 mmHg 64%
    19:00 -1°C° 0 mm 1 mps 660 mmHg 64%
    20:00 -1°C° 0 mm 1 mps 659 mmHg 65%
    21:00 -1°C° 0 mm 1 mps 659 mmHg 66%
    22:00 -1°C° 0.1 mm 1 mps 659 mmHg 68%
    23:00 -3°C° 0.1 mm 2 mps 659 mmHg 70%

    Tomorrow, 6 December, Tuesday

    Time Temperature Precipitation Wind Pressure Humidity
    00:00 -3°C° 0.1 mm 2 mps 660 mmHg 72%
    01:00 -4°C° 0.3 mm 2 mps 660 mmHg 75%
    02:00 -4°C° 0.3 mm 2 mps 660 mmHg 78%
    03:00 -4°C° 0.3 mm 2 mps 660 mmHg 81%
    04:00 -4°C° 0.7 mm 2 mps 660 mmHg 83%
    05:00 -4°C° 0.7 mm 2 mps 661 mmHg 85%
    06:00 -4°C° 0.7 mm 2 mps 661 mmHg 87%
    07:00 -4°C° 0.6 mm 2 mps 661 mmHg 85%
    08:00 -4°C° 0.6 mm 2 mps 662 mmHg 83%
    09:00 -4°C° 0.6 mm 2 mps 662 mmHg 80%
    10:00 -4°C° 0.3 mm 2 mps 663 mmHg 77%
    11:00 -4°C° 0.3 mm 2 mps 663 mmHg 74%
    12:00 -3°C° 0.3 mm 2 mps 663 mmHg 70%
    13:00 -3°C° 0.2 mm 2 mps 663 mmHg 72%
    14:00 -4°C° 0.2 mm 2 mps 663 mmHg 73%
    15:00 -4°C° 0.2 mm 2 mps 663 mmHg 74%
    16:00 -3°C° 0 mm 1 mps 663 mmHg 78%
    17:00 -6°C° 0 mm 1 mps 663 mmHg 81%
    18:00 -7°C° 0 mm 1 mps 662 mmHg 84%
    19:00 -7°C° 0 mm 1 mps 663 mmHg 84%
    20:00 -7°C° 0 mm 1 mps 663 mmHg 83%
    21:00 -8°C° 0 mm 2 mps 663 mmHg 82%
    22:00 -9°C° 0 mm 2 mps 663 mmHg 81%
    23:00 -9°C° 0 mm 2 mps 662 mmHg 80%

    Day after tomorrow, 7 December, Wednesday

    Time Temperature Precipitation Wind Pressure Humidity
    00:00 -9°C° 0 mm 2 mps 662 mmHg 79%
    01:00 -9°C° 0 mm 2 mps 662 mmHg 78%
    02:00 -9°C° 0 mm 2 mps 662 mmHg 77%
    03:00 -8°C° 0 mm 2 mps 661 mmHg 76%
    04:00 -8°C° 0 mm 2 mps 661 mmHg 75%
    05:00 -8°C° 0 mm 2 mps 661 mmHg 74%
    06:00 -8°C° 0 mm 2 mps 661 mmHg 73%
    07:00 -7°C° 0 mm 2 mps 661 mmHg 71%
    08:00 -5°C° 0 mm 2 mps 662 mmHg 69%
    09:00 -4°C° 0 mm 2 mps 662 mmHg 67%
    10:00 -2°C° 0 mm 2 mps 662 mmHg 63%
    11:00 -1°C° 0 mm 2 mps 661 mmHg 60%
    12:00 +3°C° 0 mm 1 mps 661 mmHg 57%
    13:00 +3°C° 0 mm 1 mps 661 mmHg 61%
    14:00 +2°C° 0 mm 1 mps 660 mmHg 64%
    15:00 +2°C° 0 mm 1 mps 660 mmHg 68%
    16:00 0°C° 0 mm 1 mps 659 mmHg 71%
    17:00 -4°C° 0 mm 2 mps 659 mmHg 73%
    18:00 -6°C° 0 mm 2 mps 659 mmHg 76%
    19:00 -6°C° 0 mm 2 mps 659 mmHg 75%
    20:00 -6°C° 0 mm 2 mps 659 mmHg 74%
    21:00 -6°C° 0 mm 2 mps 659 mmHg 73%
    22:00 -6°C° 0 mm 2 mps 659 mmHg 73%
    23:00 -7°C° 0 mm 2 mps 659 mmHg 72%

    8 December, Thursday

    Time Temperature Precipitation Wind Pressure Humidity
    00:00 -7°C° 0 mm 2 mps 659 mmHg 71%
    01:00 -7°C° 0 mm 2 mps 659 mmHg 71%
    02:00 -7°C° 0 mm 2 mps 660 mmHg 71%
    03:00 -7°C° 0 mm 2 mps 660 mmHg 71%
    04:00 -6°C° 0 mm 1 mps 660 mmHg 72%
    05:00 -6°C° 0 mm 1 mps 661 mmHg 72%
    06:00 -6°C° 0 mm 1 mps 662 mmHg 72%
    07:00 -4°C° 0 mm 1 mps 663 mmHg 70%
    08:00 -3°C° 0 mm 1 mps 664 mmHg 68%
    09:00 -4°C° 0 mm 2 mps 665 mmHg 66%
    10:00 -4°C° 0 mm 2 mps 665 mmHg 65%
    11:00 -4°C° 0 mm 2 mps 665 mmHg 64%
    12:00 -3°C° 0 mm 2 mps 665 mmHg 62%
    13:00 -3°C° 0 mm 2 mps 664 mmHg 64%
    14:00 -4°C° 0 mm 2 mps 664 mmHg 65%
    15:00 -4°C° 0 mm 2 mps 664 mmHg 67%
    16:00 -3°C° 0 mm 1 mps 664 mmHg 71%
    17:00 -6°C° 0 mm 1 mps 664 mmHg 76%
    18:00 -8°C° 0 mm 1 mps 663 mmHg 81%
    19:00 -8°C° 0 mm 1 mps 664 mmHg 81%
    20:00 -8°C° 0 mm 1 mps 664 mmHg 81%
    21:00 -8°C° 0 mm 1 mps 664 mmHg 81%
    22:00 -9°C° 0 mm 1 mps 664 mmHg 82%
    23:00 -9°C° 0 mm 1 mps 664 mmHg 83%

    9 December, Friday

    Time Temperature Precipitation Wind Pressure Humidity
    00:00 -9°C° 0 mm 1 mps 663 mmHg 85%
    01:00 -10°C° 0 mm 1 mps 663 mmHg 85%
    02:00 -10°C° 0 mm 1 mps 663 mmHg 85%
    03:00 -10°C° 0 mm 0 mps 663 mmHg 86%
    04:00 -10°C° 0 mm 1 mps 663 mmHg 85%
    05:00 -10°C° 0 mm 1 mps 663 mmHg 83%
    06:00 -10°C° 0 mm 1 mps 663 mmHg 82%
    07:00 -8°C° 0 mm 1 mps 664 mmHg 76%
    08:00 -7°C° 0 mm 1 mps 664 mmHg 71%
    09:00 -5°C° 0 mm 0 mps 665 mmHg 65%
    10:00 -3°C° 0 mm 1 mps 665 mmHg 61%
    11:00 -2°C° 0 mm 1 mps 665 mmHg 58%
    12:00 -1°C° 0 mm 1 mps 665 mmHg 54%
    13:00 -1°C° 0 mm 1 mps 664 mmHg 57%
    14:00 -1°C° 0 mm 1 mps 664 mmHg 60%
    15:00 -1°C° 0 mm 1 mps 663 mmHg 62%
    16:00 -3°C° 0 mm 1 mps 663 mmHg 68%
    17:00 -6°C° 0 mm 1 mps 662 mmHg 75%
    18:00 -8°C° 0 mm 1 mps 662 mmHg 81%
    19:00 -8°C° 0 mm 1 mps 662 mmHg 79%
    20:00 -8°C° 0 mm 1 mps 662 mmHg 78%
    21:00 -8°C° 0 mm 1 mps 662 mmHg 77%
    22:00 -7°C° 0 mm 1 mps 661 mmHg 76%
    23:00 -7°C° 0 mm 1 mps 661 mmHg 74%

    10 December, Saturday

    Time Temperature Precipitation Wind Pressure Humidity
    00:00 -7°C° 0 mm 1 mps 661 mmHg 73%
    01:00 -7°C° 0 mm 1 mps 661 mmHg 72%
    02:00 -7°C° 0 mm 1 mps 660 mmHg 72%
    03:00 -7°C° 0 mm 1 mps 660 mmHg 71%
    04:00 -8°C° 0 mm 2 mps 660 mmHg 70%
    05:00 -8°C° 0 mm 2 mps 659 mmHg 69%
    06:00 -8°C° 0 mm 2 mps 659 mmHg 68%
    07:00 -6°C° 0 mm 2 mps 659 mmHg 65%
    08:00 -2°C° 0 mm 1 mps 660 mmHg 62%
    09:00 0°C° 0 mm 1 mps 660 mmHg 59%
    10:00 +1°C° 0 mm 1 mps 660 mmHg 55%
    11:00 +3°C° 0 mm 1 mps 659 mmHg 52%
    12:00 +4°C° 0 mm 1 mps 659 mmHg 49%
    13:00 +4°C° 0 mm 1 mps 658 mmHg 53%
    14:00 +3°C° 0 mm 1 mps 657 mmHg 57%
    15:00 +3°C° 0 mm 1 mps 657 mmHg 61%
    16:00 +1°C° 0 mm 1 mps 656 mmHg 65%
    17:00 -1°C° 0 mm 1 mps 656 mmHg 68%
    18:00 -2°C° 0 mm 1 mps 655 mmHg 71%
    19:00 -4°C° 0 mm 2 mps 655 mmHg 71%
    20:00 -4°C° 0 mm 2 mps 655 mmHg 72%
    21:00 -4°C° 0 mm 2 mps 655 mmHg 72%
    22:00 -4°C° 0 mm 2 mps 655 mmHg 72%
    23:00 -4°C° 0 mm 2 mps 655 mmHg 73%
    Show more